カタログに戻る

COSMOS 252 DEB *

運用中LEO
NORAD 18648·DEBRIS·🇷🇺 Russia

打ち上げ Nov 1, 1968 から Baikonur Cosmodrome

Loading…

次のパス (今後24時間)

TLE

最新Source: Space-Track

元期: Sep 14, 2026, 07:56 UTC

1 18648U 68097ED  26257.33088724  .00000395  00000-0  37285-3 0  9999
2 18648  62.2097  14.9088 0556835  16.7136 345.1431 13.38437385667501

AllMySatでCOSMOS 252 DEB *をリアルタイム追跡

Download on the App Store